[[{"header":{"parameterUnit":"m.s-1","parameterCategory":1,"la1":30.2991,"la2":30.254,"lo1":-89.0895,"lo2":-89.0444,"dy":0.0017,"dx":0.0017,"nx":28,"ny":28,"refTime":"2024-04-25T03:00:00:Z","depth":0,"parameterNumber":2,"parameterNumberName":"U-component_of_WINDS"},"data":[0,0,0,0,0,0,0,0,0,0,0,0,0,0,0,0,0,0,0,0,0,0,0,0,0,0,0,0,0,0,0,0,0,0,0,0,0,0,0,0,0,0,0,0,0,0,0,0,0,0,0,0,0,0,0,0,0,0,-5.143,-5.1431,0,-5.1519,-5.152,-5.1521,-5.1522,-5.1521,-5.1519,-5.1518,-5.1604,-5.1608,-5.1611,0,0,0,0,0,0,0,0,0,0,0,0,0,-5.1257,-5.1261,-5.143,-5.1431,-5.1432,-5.1519,-5.152,-5.1521,-5.1522,-5.1521,-5.1519,-5.1518,-5.1603,-5.1607,-5.1611,0,0,0,0,0,0,0,0,0,0,0,0,0,-5.1338,-5.1262,-5.143,-5.1443,-5.1445,-5.1518,-5.152,-5.1521,-5.1522,-5.152,-5.1519,-5.1517,-5.1602,-5.1607,-5.1612,-5.1676,0,0,-5.1627,-5.1629,0,0,0,0,0,0,0,0,-5.1333,-5.1344,-5.144,-5.1442,-5.1445,-5.1508,-5.1491,-5.1573,-5.1523,-5.1493,-5.1518,-5.1516,-5.1573,-5.158,-5.1601,-5.168,-5.1684,-5.1627,-5.163,-5.1633,-5.1634,0,0,0,0,0,0,0,-5.1328,-5.134,-5.1465,-5.1441,-5.1444,-5.1444,-5.1453,-5.1506,-5.1541,-5.1495,-5.1496,-5.1506,-5.1574,-5.1596,-5.1603,-5.1685,-5.1627,-5.1632,-5.1635,-5.1637,-5.1821,-5.1823,0,0,0,0,0,0,-5.132,-5.1336,-5.1462,-5.1468,-5.1384,-5.1448,-5.1459,-5.1489,-5.1541,-5.1547,-5.1508,-5.1506,-5.1588,-5.1597,-5.1606,-5.1683,-5.1633,-5.1637,-5.164,-5.1819,-5.1821,-5.1823,0,0,0,0,0,0,-5.1316,-5.1331,-5.1458,-5.1402,-5.1418,-5.1453,-5.1487,-5.1492,-5.1513,-5.155,-5.1556,-5.1524,-5.1587,-5.1599,-5.1659,-5.1686,-5.1639,-5.1644,-5.1817,-5.182,-5.1822,-5.1839,0,0,0,0,0,0,-5.1311,-5.133,-5.1355,-5.1402,-5.1421,-5.1511,-5.1489,-5.1495,-5.1522,-5.1521,-5.1566,-5.1572,-5.1587,-5.1651,-5.1664,-5.1692,-5.1648,-5.1814,-5.1818,-5.1821,-5.1836,-5.1842,-5.1847,0,0,0,0,0,-5.1305,-5.1355,-5.1357,-5.1372,-5.1454,-5.1513,-5.1523,-5.154,-5.1525,-5.155,-5.1574,-5.1571,-5.1682,-5.1657,-5.1671,-5.1701,-5.1813,-5.1817,-5.1821,-5.1833,-5.184,-5.1847,0,0,0,0,0,0,-5.1308,-5.1362,-5.1363,-5.1431,-5.1467,-5.1513,-5.1544,-5.1547,-5.1587,-5.1584,-5.1603,-5.1613,-5.1672,-5.1694,-5.1665,-5.1766,-5.1745,-5.1752,-5.1749,-5.1757,-5.1762,-5.1754,-5.1652,0,0,0,0,0,-5.1317,-5.1362,-5.1406,-5.1461,-5.1479,-5.1509,-5.1535,-5.1546,-5.1584,-5.1598,-5.1627,-5.1662,-5.1705,-5.1733,-5.1774,-5.184,-5.1849,-5.1868,-5.1874,-5.1878,-5.1883,-5.1918,-5.1926,-5.1837,-5.1837,-5.1837,0,0,-5.1335,-5.137,-5.1396,-5.1462,-5.1492,-5.1536,-5.1522,-5.157,-5.1602,-5.1605,-5.1663,-5.1686,-5.1727,-5.179,-5.1819,-5.1809,-5.191,-5.1883,-5.1887,-5.1889,-5.1923,-5.1932,-5.1939,-5.184,-5.184,-5.1839,0,0,-5.139,-5.1422,-5.1471,-5.1501,-5.1547,-5.1567,-5.1579,-5.1625,-5.164,-5.1699,-5.1703,-5.1742,-5.1815,-5.1844,-5.1869,-5.1937,-5.1935,-5.1951,-5.1978,-5.2012,-5.2019,-5.2025,-5.2047,-5.2055,-5.1956,-5.1956,-5.1956,0,-5.1405,-5.1474,-5.1495,-5.1543,-5.1571,-5.1579,-5.1628,-5.1656,-5.1712,-5.1731,-5.1721,-5.1814,-5.1842,-5.1911,-5.1928,-5.1949,-5.1961,-5.1943,-5.2017,-5.2023,-5.2029,-5.205,-5.2059,-5.1957,-5.1957,-5.1957,-5.1957,0,-5.149,-5.1538,-5.1571,-5.1627,-5.166,-5.1708,-5.1735,-5.1766,-5.1774,-5.1795,-5.1855,-5.189,-5.1939,-5.1957,-5.1965,-5.2027,-5.202,-5.2013,-5.1991,-5.2038,-5.2059,-5.2067,-5.1959,-5.1959,-5.1958,-5.1958,0,0,-5.1545,-5.1615,-5.1626,-5.1652,-5.1704,-5.174,-5.1789,-5.1839,-5.1863,-5.1903,-5.1943,-5.2007,-5.2001,-5.2029,-5.204,-5.2071,-5.2121,-5.206,-5.2061,-5.2068,-5.219,-5.2192,-5.2202,-5.2122,-5.2124,-5.2125,-5.2186,0,-5.1603,-5.1691,-5.1712,-5.1787,-5.183,-5.184,-5.1882,-5.1918,-5.1939,-5.1978,-5.2002,-5.2046,-5.2036,-5.2053,-5.2084,-5.2108,-5.2145,-5.2105,-5.2156,-5.2158,-5.2142,-5.2213,-5.2215,-5.2271,-5.2194,-5.2195,-5.2196,0,-5.1682,-5.1725,-5.1804,-5.1851,-5.187,-5.1908,-5.1955,-5.1993,-5.2034,-5.2048,-5.208,-5.2089,-5.2139,-5.2119,-5.2186,-5.2158,-5.2182,-5.2197,-5.22,-5.2202,-5.2177,-5.2214,-5.2289,-5.2296,-5.2209,-5.2208,-5.2207,0,-5.1711,-5.1789,-5.1846,-5.1868,-5.1925,-5.1951,-5.1976,-5.2016,-5.2045,-5.2086,-5.2104,-5.2151,-5.2175,-5.221,-5.2231,-5.2214,-5.2297,-5.2278,-5.2307,-5.2306,-5.2321,-5.2319,-5.2397,-5.2341,-5.2341,-5.2341,-5.2341,0,-5.1772,-5.1819,-5.186,-5.1895,-5.1948,-5.1973,-5.2024,-5.2049,-5.2085,-5.2124,-5.2136,-5.2171,-5.2199,-5.2238,-5.2255,-5.2308,-5.232,-5.233,-5.2333,-5.2327,-5.2326,-5.234,-5.2335,-5.2343,-5.2343,-5.2342,-5.2342,0,-5.1812,-5.1842,-5.1904,-5.1954,-5.1968,-5.2005,-5.2047,-5.2081,-5.2104,-5.2153,-5.2166,-5.2201,-5.2248,-5.2274,-5.2333,-5.2345,-5.2403,-5.2405,-5.2389,-5.2389,-5.2416,-5.2412,-5.2504,-5.2516,-5.2455,-5.2455,-5.2456,0,-5.1847,-5.1884,-5.1939,-5.1966,-5.1992,-5.2037,-5.2066,-5.2093,-5.2123,-5.2174,-5.2201,-5.2249,-5.2289,-5.2364,-5.2394,-5.2439,-5.2441,-5.247,-5.2447,-5.244,-5.2438,-5.2434,-5.2437,-5.2472,-5.2473,-5.2473,-5.2474,0,-5.1905,-5.1919,-5.1962,-5.2011,-5.2047,-5.2086,-5.2124,-5.2146,-5.2179,-5.2212,-5.2262,-5.2293,-5.2354,-5.2401,-5.2449,-5.2473,-5.2478,-5.2482,-5.249,-5.2482,-5.247,-5.2475,-5.2396,-5.2478,-5.2478,-5.2477,-5.2477,-5.2477,-5.1942,-5.1975,-5.2019,-5.2067,-5.21,-5.2136,-5.217,-5.2198,-5.224,-5.2293,-5.2306,-5.2358,-5.2399,-5.2464,-5.249,-5.2529,-5.2523,-5.2537,-5.2539,-5.2541,-5.2541,-5.2467,-5.2539,-5.2538,-5.2538,-5.2538,-5.2538,0,-5.1999,-5.2029,-5.2073,-5.2127,-5.2165,-5.217,-5.2213,-5.2244,-5.2289,-5.2328,-5.2368,-5.2424,-5.2471,-5.2506,-5.2553,-5.2578,-5.2581,-5.2589,-5.2586,-5.2591,-5.2545,-5.2531,-5.2585,-5.2585,-5.2585,-5.2585,-5.2585,-5.2585,-5.2033,-5.2088,-5.2107,-5.2179,-5.2208,-5.226,-5.2284,-5.2317,-5.2348,-5.2411,-5.2451,-5.2474,-5.2511,-5.2561,-5.2604,-5.2613,-5.2628,-5.2635,-5.2644,-5.2599,-5.2594,-5.2589,-5.2576,-5.2639,-5.2639,-5.2686,-5.2687,-5.2687]},{"header":{"parameterUnit":"m.s-1","parameterCategory":1,"la1":30.2991,"la2":30.254,"lo1":-89.0895,"lo2":-89.0444,"dy":0.0017,"dx":0.0017,"nx":28,"ny":28,"refTime":"2024-04-25T03:00:00:Z","depth":0,"parameterNumber":3,"parameterNumberName":"V-component_of_WINDS"},"data":[0,0,0,0,0,0,0,0,0,0,0,0,0,0,0,0,0,0,0,0,0,0,0,0,0,0,0,0,0,0,0,0,0,0,0,0,0,0,0,0,0,0,0,0,0,0,0,0,0,0,0,0,0,0,0,0,0,0,4.4265,4.4265,0,4.4306,4.4307,4.4307,4.4301,4.43,4.4299,4.4299,4.4338,4.434,4.4342,0,0,0,0,0,0,0,0,0,0,0,0,0,4.4179,4.4181,4.4265,4.4265,4.4266,4.4306,4.4307,4.4308,4.4301,4.43,4.4299,4.4298,4.4338,4.434,4.4342,0,0,0,0,0,0,0,0,0,0,0,0,0,4.4218,4.4181,4.4265,4.4267,4.4268,4.4306,4.4307,4.4308,4.4301,4.43,4.4299,4.4298,4.4337,4.4339,4.4342,4.4379,0,0,4.435,4.4351,0,0,0,0,0,0,0,0,4.4216,4.4221,4.4266,4.4267,4.4268,4.4297,4.4291,4.4331,4.4301,4.4288,4.4299,4.4297,4.4325,4.4329,4.4339,4.4381,4.4382,4.435,4.4352,4.4353,4.4353,0,0,0,0,0,0,0,4.4213,4.4219,4.4281,4.4267,4.4268,4.4267,4.4271,4.4299,4.4312,4.4289,4.4289,4.4294,4.4325,4.4336,4.434,4.4383,4.435,4.4352,4.4354,4.4355,4.4462,4.4464,0,0,0,0,0,0,4.421,4.4217,4.428,4.4282,4.4239,4.4269,4.4274,4.4289,4.4312,4.4314,4.4295,4.4294,4.4332,4.4337,4.4341,4.4389,4.4353,4.4355,4.4357,4.4461,4.4463,4.4464,0,0,0,0,0,0,4.4208,4.4216,4.4278,4.425,4.4258,4.4272,4.4289,4.429,4.4301,4.4316,4.4318,4.4304,4.4332,4.4337,4.4371,4.439,4.4356,4.4359,4.4459,4.4462,4.4463,4.4483,0,0,0,0,0,0,4.4206,4.4215,4.4229,4.425,4.4259,4.4307,4.429,4.4292,4.4306,4.4305,4.4325,4.4327,4.4331,4.4367,4.4373,4.4393,4.4361,4.4458,4.446,4.4463,4.4481,4.4486,4.449,0,0,0,0,0,4.4203,4.4231,4.4229,4.4237,4.4277,4.4308,4.4313,4.4319,4.4308,4.4322,4.4333,4.4327,4.4387,4.4371,4.4378,4.4398,4.4457,4.446,4.4463,4.4479,4.4485,4.449,0,0,0,0,0,0,4.4209,4.4234,4.4232,4.4268,4.4287,4.4307,4.4325,4.4324,4.4344,4.4342,4.4347,4.4351,4.4386,4.4395,4.4377,4.4438,4.442,4.4425,4.4431,4.4436,4.4441,4.4438,4.4363,0,0,0,0,0,4.4215,4.4239,4.4259,4.4289,4.4298,4.4311,4.4324,4.4327,4.4346,4.4353,4.4365,4.4383,4.4407,4.4422,4.4444,4.4483,4.4488,4.4501,4.4505,4.4508,4.4513,4.4538,4.4544,4.4474,4.4474,4.4474,0,0,4.4226,4.4243,4.4257,4.4291,4.4305,4.4331,4.4317,4.4343,4.4362,4.4356,4.439,4.44,4.4421,4.4458,4.4475,4.4467,4.4534,4.4512,4.4515,4.4517,4.4541,4.4548,4.4554,4.4476,4.4475,4.4475,0,0,4.4262,4.4276,4.4304,4.432,4.4344,4.4352,4.4359,4.4381,4.4389,4.4423,4.4421,4.4443,4.4482,4.4498,4.4511,4.4558,4.4554,4.4565,4.4588,4.4612,4.4618,4.4623,4.4642,4.4649,4.4569,4.4569,4.4569,0,4.4273,4.4312,4.4318,4.4347,4.4363,4.4362,4.4392,4.4406,4.4435,4.4446,4.4437,4.449,4.4502,4.4546,4.4558,4.4567,4.4577,4.4562,4.4617,4.4622,4.4627,4.4645,4.4652,4.457,4.457,4.457,4.457,0,4.4326,4.4353,4.4374,4.4405,4.4423,4.4451,4.4464,4.4481,4.4484,4.4494,4.4531,4.4547,4.4575,4.4585,4.4586,4.4629,4.4624,4.4616,4.4598,4.4635,4.4652,4.4659,4.4572,4.4571,4.4571,4.4571,0,0,4.4363,4.4402,4.4409,4.4425,4.4453,4.4474,4.4504,4.4533,4.455,4.457,4.4597,4.4633,4.4627,4.4642,4.4645,4.4666,4.4706,4.4656,4.4656,4.4667,4.4759,4.4767,4.4775,4.4704,4.4705,4.4706,4.4758,0,4.4403,4.4458,4.4467,4.4515,4.4542,4.4543,4.457,4.4591,4.4602,4.4626,4.4638,4.4665,4.4653,4.4663,4.4684,4.4697,4.4725,4.4693,4.473,4.4731,4.4727,4.4783,4.479,4.4838,4.4765,4.4766,4.4767,0,4.4455,4.4481,4.4533,4.4562,4.4573,4.4597,4.4627,4.465,4.4674,4.4681,4.4701,4.4703,4.4736,4.4717,4.4763,4.4741,4.4757,4.4766,4.4768,4.4773,4.4752,4.4791,4.4853,4.4861,4.4777,4.4776,4.4776,0,4.4481,4.4528,4.4567,4.458,4.4613,4.4631,4.4646,4.4669,4.4688,4.4713,4.4726,4.4754,4.477,4.4792,4.4802,4.4787,4.4849,4.483,4.4857,4.4857,4.487,4.4869,4.4937,4.4877,4.4877,4.4877,4.4877,0,4.4525,4.4557,4.458,4.4603,4.464,4.4651,4.4688,4.4702,4.4724,4.4751,4.4752,4.4778,4.4789,4.4817,4.4825,4.4864,4.487,4.4877,4.4879,4.4878,4.4878,4.4889,4.4887,4.4879,4.4879,4.4878,4.4878,0,4.4559,4.4575,4.4618,4.4648,4.4657,4.4683,4.4709,4.4732,4.4745,4.4779,4.4788,4.4808,4.484,4.4853,4.4892,4.4898,4.4944,4.4942,4.4936,4.4937,4.4964,4.4962,4.5043,4.5056,4.4986,4.4986,4.4987,0,4.4587,4.4612,4.4647,4.4666,4.4683,4.4713,4.4733,4.4746,4.4767,4.48,4.482,4.4853,4.4881,4.4933,4.4951,4.4982,4.4982,4.5008,4.4986,4.4986,4.4985,4.4985,4.4989,4.5012,4.5013,4.5014,4.5014,0,4.4635,4.4643,4.4673,4.4707,4.4732,4.4758,4.4784,4.4799,4.4817,4.484,4.4876,4.4897,4.494,4.4974,4.5007,4.5021,4.5022,4.5021,4.503,4.5029,4.5026,4.5031,4.4949,4.5019,4.5019,4.5018,4.5018,4.5018,4.4668,4.4693,4.4723,4.4757,4.4779,4.4804,4.4829,4.4847,4.4877,4.4914,4.492,4.4958,4.4986,4.503,4.5047,4.5078,4.5071,4.5082,4.5085,4.5088,4.5092,4.5021,4.5083,4.5083,4.5083,4.5083,4.5083,0,4.4719,4.4739,4.4771,4.4809,4.4837,4.4837,4.4867,4.489,4.4925,4.4951,4.498,4.5022,4.5056,4.5078,4.5113,4.5133,4.5134,4.5142,4.5141,4.5146,4.5094,4.5085,4.5141,4.5141,4.5141,4.5141,4.5141,4.5141,4.4748,4.4791,4.4804,4.4859,4.4878,4.4918,4.4936,4.496,4.4982,4.503,4.506,4.5075,4.51,4.5137,4.5169,4.5175,4.5189,4.5197,4.5203,4.5154,4.5148,4.5143,4.5134,4.52,4.52,4.5252,4.5252,4.5252]}]]